IU7LMH-13 Weather Reports


time (UTC)temp
C
wind
direction
speed
KPH
gust
KPH
rain 1hr
cm
rain 24hr
cm
rain mn
cm
humidity
%
barometer
mb
20260906065242 29 292 3.2 6.4 0.00 0.00 0.00 40 1019.0
20260906065045 29 315 3.2 6.4 0.00 0.00 0.00 41 1018.9
20260906064841 29 338 3.2 6.4 0.00 0.00 0.00 41 1019.0
20260906064642 29 292 3.2 3.2 0.00 0.00 0.00 43 1019.1
20260906064442 28 292 3.2 6.4 0.00 0.00 0.00 42 1018.9
20260906064241 28 292 3.2 6.4 0.00 0.00 0.00 43 1018.9
20260906064056 28 315 3.2 3.2 0.00 0.00 0.00 43 1018.8
20260906063841 28 292 3.2 6.4 0.00 0.00 0.00 43 1018.8
20260906063641 28 315 3.2 3.2 0.00 0.00 0.00 44 1018.7
20260906063241 27 292 3.2 6.4 0.00 0.00 0.00 45 1018.8
20260906063054 27 315 4.8 6.4 0.00 0.00 0.00 45 1018.7
20260906062840 27 315 3.2 6.4 0.00 0.00 0.00 45 1018.8
20260906062646 27 315 3.2 6.4 0.00 0.00 0.00 45 1018.9
20260906062443 27 315 3.2 3.2 0.00 0.00 0.00 46 1018.9
20260906062242 27 292 3.2 3.2 0.00 0.00 0.00 45 1018.9
20260906061644 27 292 3.2 6.4 0.00 0.00 0.00 47 1018.8
20260906061241 26 315 4.8 6.4 0.00 0.00 0.00 47 1018.9
20260906061049 26 315 4.8 9.7 0.00 0.00 0.00 47 1018.8
20260906060842 26 315 4.8 9.7 0.00 0.00 0.00 47 1018.8
20260906060643 26 315 6.4 6.4 0.00 0.00 0.00 48 1018.9
20260906060443 26 292 4.8 6.4 0.00 0.00 0.00 48 1018.8
20260906060247 26 315 4.8 9.7 0.00 0.00 0.00 48 1018.9
20260906055641 25 270 4.8 6.4 0.00 0.00 0.00 49 1018.8
20260906055441 25 315 3.2 6.4 0.00 0.00 0.00 49 1019.0
20260906055241 25 338 4.8 6.4 0.00 0.00 0.00 49 1018.8
20260906055045 25 338 3.2 6.4 0.00 0.00 0.00 51 1018.8
20260906054843 25 292 3.2 6.4 0.00 0.00 0.00 52 1018.8
20260906054649 24 292 3.2 6.4 0.00 0.00 0.00 52 1018.8
20260906054242 24 315 3.2 6.4 0.00 0.00 0.00 55 1018.8
20260906054058 23 315 3.2 6.4 0.00 0.00 0.00 56 1018.7
20260906053841 23 315 3.2 3.2 0.00 0.00 0.00 58 1018.7
20260906053242 22 315 3.2 6.4 0.00 0.00 0.00 60 1018.6
20260906053047 22 338 3.2 3.2 0.00 0.00 0.00 60 1018.7
20260906052841 22 315 1.6 3.2 0.00 0.00 0.00 61 1018.8
20260906052641 22 270 1.6 3.2 0.00 0.00 0.00 62 1018.8
20260906052046 22 315 0.0 3.2 0.00 0.00 0.00 63 1018.5
20260906051641 21 0 0.0 0.0 0.00 0.00 0.00 64 1018.5
20260906051442 21 315 0.0 0.0 0.00 0.00 0.00 65 1018.5
20260906051241 21 315 1.6 3.2 0.00 0.00 0.00 66 1018.6
20260906050841 21 292 0.0 0.0 0.00 0.00 0.00 67 1018.5
20260906050641 21 292 0.0 0.0 0.00 0.00 0.00 67 1018.5
20260906050443 21 315 0.0 3.2 0.00 0.00 0.00 67 1018.4
20260906050243 21 315 0.0 0.0 0.00 0.00 0.00 67 1018.6
20260906050058 21 0 0.0 3.2 0.00 0.00 0.00 67 1018.5
20260906045841 21 338 0.0 0.0 0.00 0.00 0.00 68 1018.4
20260906045641 21 338 0.0 0.0 0.00 0.00 0.00 68 1018.3
20260906045443 20 22 1.6 3.2 0.00 0.00 0.00 68 1018.5
20260906045046 20 315 0.0 0.0 0.00 0.00 0.00 68 1018.3
20260906044842 20 292 0.0 3.2 0.00 0.00 0.00 69 1018.4
20260906044648 20 338 0.0 0.0 0.00 0.00 0.00 69 1018.3
20260906044443 20 45 0.0 3.2 0.00 0.00 0.00 69 1018.6
20260906044241 20 338 0.0 3.2 0.00 0.00 0.00 69 1018.4
20260906044048 20 338 1.6 3.2 0.00 0.00 0.00 68 1018.4
20260906043641 21 338 1.6 3.2 0.00 0.00 0.00 68 1018.1
20260906043502 21 338 1.6 3.2 0.00 0.00 0.00 67 1018.3
20260906043241 21 338 1.6 3.2 0.00 0.00 0.00 67 1018.3
20260906042641 21 315 0.0 0.0 0.00 0.00 0.00 64 1018.3
20260906042444 21 315 0.0 3.2 0.00 0.00 0.00 63 1018.4
20260906042241 22 338 0.0 0.0 0.00 0.00 0.00 63 1018.3
20260906041842 21 338 0.0 3.2 0.00 0.00 0.00 63 1018.3
20260906041341 21 315 0.0 3.2 0.00 0.00 0.00 64 1018.1
20260906040741 22 292 0.0 0.0 0.00 0.00 0.00 65 1018.1
20260906040341 22 315 1.6 3.2 0.00 0.00 0.00 64 1018.3
20260906040142 22 292 1.6 3.2 0.00 0.00 0.00 64 1018.0
20260906035943 22 292 3.2 3.2 0.00 0.00 0.00 64 1018.2
20260906035742 22 270 0.0 0.0 0.00 0.00 0.00 65 1018.1
20260906035548 22 292 0.0 3.2 0.00 0.00 0.00 65 1018.2
20260906035342 22 292 1.6 3.2 0.00 0.00 0.00 64 1018.1
20260906035142 23 292 3.2 3.2 0.00 0.00 0.00 63 1018.1
20260906034942 23 292 3.2 3.2 0.00 0.00 0.00 62 1018.0
20260906034743 23 270 3.2 3.2 0.00 0.00 0.00 61 1018.0
20260906034555 23 270 3.2 3.2 0.00 0.00 0.00 61 1017.9
20260906034341 23 270 3.2 3.2 0.00 0.00 0.00 61 1018.1
20260906034143 23 270 3.2 6.4 0.00 0.00 0.00 60 1018.0
20260906033944 23 270 4.8 6.4 0.00 0.00 0.00 60 1017.9
20260906033743 23 270 3.2 6.4 0.00 0.00 0.00 61 1018.0
20260906033342 23 292 3.2 6.4 0.00 0.00 0.00 62 1017.9
20260906033141 23 292 3.2 6.4 0.00 0.00 0.00 63 1017.8
20260906032943 23 292 3.2 6.4 0.00 0.00 0.00 62 1017.9
20260906032549 23 270 4.8 6.4 0.00 0.00 0.00 62 1017.8
20260906032142 23 270 4.8 6.4 0.00 0.00 0.00 61 1017.7
20260906031945 23 248 6.4 6.4 0.00 0.00 0.00 61 1017.7
20260906031741 23 270 4.8 6.4 0.00 0.00 0.00 61 1017.6
20260906031549 23 270 6.4 6.4 0.00 0.00 0.00 60 1017.7
20260906031341 23 270 4.8 6.4 0.00 0.00 0.00 61 1017.6
20260906030945 23 248 4.8 6.4 0.00 0.00 0.00 62 1017.7
20260906030741 22 270 4.8 6.4 0.00 0.00 0.00 62 1017.7
20260906030544 22 270 3.2 3.2 0.00 0.00 0.00 63 1017.8
20260906030341 22 248 0.0 0.0 0.00 0.00 0.00 65 1017.6
20260906030146 22 180 0.0 0.0 0.00 0.00 0.00 64 1017.5
20260906025941 22 225 0.0 0.0 0.00 0.00 0.00 64 1017.9
20260906025741 23 270 0.0 0.0 0.00 0.00 0.00 63 1017.9
20260906025342 23 292 0.0 0.0 0.00 0.00 0.00 64 1017.9
20260906025143 23 338 0.0 0.0 0.00 0.00 0.00 64 1018.0
20260906024743 23 292 1.6 6.4 0.00 0.00 0.00 62 1017.7
20260906024547 23 270 0.0 3.2 0.00 0.00 0.00 63 1017.9
20260906024341 23 270 0.0 0.0 0.00 0.00 0.00 64 1017.7
20260906023943 23 270 1.6 3.2 0.00 0.00 0.00 63 1017.7
20260906023742 23 292 0.0 0.0 0.00 0.00 0.00 64 1017.8
20260906023549 23 292 0.0 0.0 0.00 0.00 0.00 64 1017.8
20260906023342 23 292 0.0 3.2 0.00 0.00 0.00 64 1017.7
20260906023143 23 292 0.0 0.0 0.00 0.00 0.00 64 1017.8
20260906022741 23 292 0.0 3.2 0.00 0.00 0.00 64 1017.9
20260906022341 23 292 3.2 3.2 0.00 0.00 0.00 64 1017.8
20260906022142 23 292 3.2 3.2 0.00 0.00 0.00 66 1017.8
20260906021941 23 315 1.6 3.2 0.00 0.00 0.00 65 1017.9
20260906021743 23 315 1.6 3.2 0.00 0.00 0.00 67 1018.1
20260906021546 22 292 0.0 3.2 0.00 0.00 0.00 68 1018.0
20260906021342 22 292 1.6 3.2 0.00 0.00 0.00 68 1017.8
20260906021143 22 248 0.0 3.2 0.00 0.00 0.00 69 1017.8
20260906020942 22 0 0.0 0.0 0.00 0.00 0.00 69 1017.9
20260906020741 22 338 0.0 0.0 0.00 0.00 0.00 69 1018.1
20260906020544 22 292 0.0 0.0 0.00 0.00 0.00 69 1018.0
20260906020341 22 202 0.0 0.0 0.00 0.00 0.00 69 1017.9
20260906020145 22 315 0.0 0.0 0.00 0.00 0.00 69 1017.9
20260906015942 22 0 0.0 0.0 0.00 0.00 0.00 69 1018.0
20260906015547 23 202 0.0 3.2 0.00 0.00 0.00 69 1017.9
20260906014942 23 292 0.0 0.0 0.00 0.00 0.00 69 1017.9
20260906014742 23 315 0.0 3.2 0.00 0.00 0.00 69 1017.9
20260906014547 23 292 3.2 6.4 0.00 0.00 0.00 69 1018.0
20260906014341 23 292 4.8 6.4 0.00 0.00 0.00 69 1018.0
20260906014141 23 270 6.4 9.7 0.00 0.00 0.00 69 1017.9
20260906013943 23 270 8.0 11.3 0.00 0.00 0.00 70 1017.7
20260906013741 23 248 6.4 9.7 0.00 0.00 0.00 70 1017.9
20260906013545 23 292 6.4 9.7 0.00 0.00 0.00 70 1018.0
20260906013340 23 270 6.4 6.4 0.00 0.00 0.00 69 1017.9
20260906013143 23 248 6.4 6.4 0.00 0.00 0.00 69 1018.1
20260906012942 23 270 3.2 6.4 0.00 0.00 0.00 68 1017.9
20260906012741 23 270 3.2 6.4 0.00 0.00 0.00 68 1017.8
20260906012548 23 292 4.8 6.4 0.00 0.00 0.00 67 1018.1
20260906012340 23 292 3.2 6.4 0.00 0.00 0.00 66 1018.1
20260906012142 24 292 4.8 6.4 0.00 0.00 0.00 66 1017.9
20260906011940 24 292 4.8 6.4 0.00 0.00 0.00 65 1017.9
20260906011742 23 292 4.8 6.4 0.00 0.00 0.00 65 1018.0
20260906011554 23 292 6.4 6.4 0.00 0.00 0.00 66 1018.0
20260906011342 23 292 4.8 6.4 0.00 0.00 0.00 66 1018.1
20260906011141 23 292 6.4 6.4 0.00 0.00 0.00 67 1018.1
20260906010945 23 292 6.4 6.4 0.00 0.00 0.00 68 1018.2
20260906010741 23 292 4.8 6.4 0.00 0.00 0.00 68 1018.2
20260906010545 23 292 4.8 6.4 0.00 0.00 0.00 69 1018.2
20260906010341 22 292 3.2 6.4 0.00 0.00 0.00 69 1018.0
20260906005742 22 292 3.2 6.4 0.00 0.00 0.00 69 1017.9
20260906005547 22 270 4.8 6.4 0.00 0.00 0.00 69 1018.2
20260906005342 22 292 3.2 3.2 0.00 0.00 0.00 69 1018.1
20260906004941 22 292 3.2 6.4 0.00 0.00 0.00 69 1018.2
20260906004741 22 315 3.2 3.2 0.00 0.00 0.00 69 1018.1
20260906004340 23 292 1.6 3.2 0.00 0.00 0.00 69 1018.1
20260906004144 23 315 1.6 3.2 0.00 0.00 0.00 69 1018.0
20260906003944 23 292 1.6 3.2 0.00 0.00 0.00 69 1018.2
20260906003741 23 315 1.6 3.2 0.00 0.00 0.00 68 1018.2
20260906003545 23 315 1.6 3.2 0.00 0.00 0.00 68 1018.0
20260906003343 23 292 3.2 6.4 0.00 0.00 0.00 67 1017.9
20260906003142 23 338 3.2 3.2 0.00 0.00 0.00 67 1017.9
20260906002943 23 292 3.2 3.2 0.00 0.00 0.00 66 1017.9
20260906002742 23 292 3.2 3.2 0.00 0.00 0.00 66 1018.0
20260906002557 23 315 3.2 6.4 0.00 0.00 0.00 66 1017.9
20260906002147 23 292 3.2 6.4 0.00 0.00 0.00 66 1018.0
20260906001743 23 315 3.2 6.4 0.00 0.00 0.00 65 1018.0
20260906001552 23 315 3.2 3.2 0.00 0.00 0.00 65 1017.9
20260906001341 23 315 3.2 3.2 0.00 0.00 0.00 64 1017.9
20260906000944 23 315 3.2 3.2 0.00 0.00 0.00 65 1018.0
20260906000741 23 315 1.6 3.2 0.00 0.00 0.00 64 1017.9
20260906000546 23 315 1.6 3.2 0.00 0.00 0.00 64 1017.9
20260906000341 23 315 1.6 3.2 0.00 0.00 0.00 64 1018.2
20260906000143 23 315 1.6 3.2 0.00 0.00 0.00 64 1018.1
20260905235943 23 292 0.0 3.2 0.00 0.00 0.00 64 1018.2
20260905235741 23 315 1.6 3.2 0.00 0.00 0.00 63 1018.2
20260905235547 23 315 1.6 3.2 0.00 0.00 0.00 63 1018.2
20260905235342 23 315 3.2 3.2 0.00 0.00 0.00 63 1018.0
20260905235142 23 315 3.2 3.2 0.00 0.00 0.00 63 1018.1
20260905234942 23 315 1.6 3.2 0.00 0.00 0.00 63 1018.1
20260905234742 23 315 3.2 3.2 0.00 0.00 0.00 63 1018.1
20260905234342 23 292 1.6 3.2 0.00 0.00 0.00 64 1018.1
20260905234143 23 315 1.6 3.2 0.00 0.00 0.00 64 1018.3
20260905233957 23 315 3.2 3.2 0.00 0.00 0.00 64 1017.9
20260905233741 23 292 1.6 3.2 0.00 0.00 0.00 63 1018.0
20260905233545 23 292 0.0 3.2 0.00 0.00 0.00 62 1018.0
20260905233341 24 292 1.6 3.2 0.00 0.00 0.00 62 1018.0
20260905233141 24 292 1.6 3.2 0.00 0.00 0.00 62 1018.2
20260905232943 24 315 3.2 3.2 0.00 0.00 0.00 61 1017.9
20260905232743 24 315 1.6 3.2 0.00 0.00 0.00 62 1018.2
20260905232547 24 292 3.2 3.2 0.00 0.00 0.00 61 1018.1
20260905232341 24 292 3.2 6.4 0.00 0.00 0.00 62 1017.9
20260905232141 24 292 4.8 6.4 0.00 0.00 0.00 62 1018.2
20260905231946 24 292 3.2 6.4 0.00 0.00 0.00 62 1018.0
20260905231742 24 292 3.2 6.4 0.00 0.00 0.00 62 1018.3
20260905231556 24 270 4.8 6.4 0.00 0.00 0.00 63 1018.2
20260905231343 24 292 4.8 6.4 0.00 0.00 0.00 63 1018.1
20260905231143 24 292 3.2 6.4 0.00 0.00 0.00 63 1018.2
20260905230946 24 292 3.2 3.2 0.00 0.00 0.00 64 1018.2
20260905230741 24 292 1.6 3.2 0.00 0.00 0.00 65 1018.1
20260905230544 23 292 3.2 3.2 0.00 0.00 0.00 65 1018.3
20260905230342 23 292 3.2 3.2 0.00 0.00 0.00 66 1018.3
20260905230143 23 292 3.2 3.2 0.00 0.00 0.00 66 1018.1
20260905225944 23 292 3.2 3.2 0.00 0.00 0.00 67 1018.1
20260905225742 24 292 3.2 3.2 0.00 0.00 0.00 67 1018.1
20260905225548 24 315 3.2 3.2 0.00 0.00 0.00 67 1018.3
20260905225342 24 292 3.2 3.2 0.00 0.00 0.00 66 1018.3
20260905225142 24 270 3.2 3.2 0.00 0.00 0.00 66 1018.2
20260905224741 24 270 3.2 3.2 0.00 0.00 0.00 66 1018.2
20260905224550 24 292 3.2 3.2 0.00 0.00 0.00 65 1018.4
20260905224342 24 292 3.2 3.2 0.00 0.00 0.00 65 1018.4
20260905224143 24 292 3.2 3.2 0.00 0.00 0.00 64 1018.2
20260905223943 24 292 3.2 3.2 0.00 0.00 0.00 63 1018.3
20260905223741 24 292 3.2 3.2 0.00 0.00 0.00 62 1018.4
20260905223341 24 292 3.2 3.2 0.00 0.00 0.00 58 1018.5
20260905222941 24 270 3.2 6.4 0.00 0.00 0.00 57 1018.2
20260905222743 24 292 3.2 3.2 0.00 0.00 0.00 58 1018.2
20260905222549 24 292 3.2 3.2 0.00 0.00 0.00 58 1018.5
20260905222341 25 292 1.6 3.2 0.00 0.00 0.00 58 1018.6
20260905222142 25 315 3.2 6.4 0.00 0.00 0.00 57 1018.4
20260905221941 25 292 3.2 6.4 0.00 0.00 0.00 57 1018.5
20260905221743 25 292 3.2 3.2 0.00 0.00 0.00 56 1018.4
20260905221552 25 315 3.2 3.2 0.00 0.00 0.00 57 1018.3
20260905221342 25 315 3.2 3.2 0.00 0.00 0.00 57 1018.6
20260905221152 25 315 3.2 3.2 0.00 0.00 0.00 58 1018.3
20260905220945 25 292 3.2 3.2 0.00 0.00 0.00 60 1018.3
20260905220742 25 315 3.2 3.2 0.00 0.00 0.00 60 1018.5
20260905220342 25 315 3.2 3.2 0.00 0.00 0.00 59 1018.4
20260905220156 24 292 3.2 3.2 0.00 0.00 0.00 62 1018.2
20260905215942 24 315 1.6 3.2 0.00 0.00 0.00 65 1018.1
20260905215743 24 315 3.2 3.2 0.00 0.00 0.00 65 1018.1
20260905215548 24 292 1.6 3.2 0.00 0.00 0.00 66 1018.1
20260905215342 24 315 1.6 3.2 0.00 0.00 0.00 68 1018.3
20260905215142 24 315 0.0 0.0 0.00 0.00 0.00 68 1018.1
20260905214942 25 292 0.0 0.0 0.00 0.00 0.00 70 1018.0
20260905214743 25 315 0.0 0.0 0.00 0.00 0.00 70 1018.0
20260905214551 25 315 0.0 0.0 0.00 0.00 0.00 70 1018.2
20260905214341 25 315 0.0 0.0 0.00 0.00 0.00 70 1018.2
20260905214142 25 292 0.0 0.0 0.00 0.00 0.00 70 1018.0
20260905213944 25 292 0.0 0.0 0.00 0.00 0.00 70 1018.3
20260905213545 25 292 0.0 0.0 0.00 0.00 0.00 69 1018.2
20260905213341 26 270 1.6 3.2 0.00 0.00 0.00 69 1018.1
20260905213142 26 0 0.0 3.2 0.00 0.00 0.00 69 1017.9
20260905212942 26 292 0.0 0.0 0.00 0.00 0.00 69 1018.0
20260905212743 26 315 0.0 3.2 0.00 0.00 0.00 69 1018.0
20260905212556 26 292 0.0 3.2 0.00 0.00 0.00 68 1018.1
20260905212343 26 292 3.2 3.2 0.00 0.00 0.00 68 1018.0
20260905212142 26 292 3.2 3.2 0.00 0.00 0.00 67 1018.0
20260905211941 27 315 3.2 6.4 0.00 0.00 0.00 67 1018.0
20260905211742 27 270 3.2 3.2 0.00 0.00 0.00 66 1018.2
20260905211548 27 292 3.2 3.2 0.00 0.00 0.00 66 1018.2
20260905211343 27 292 3.2 6.4 0.00 0.00 0.00 65 1017.9
20260905211142 27 292 3.2 3.2 0.00 0.00 0.00 65 1018.1
20260905210944 27 292 3.2 6.4 0.00 0.00 0.00 65 1018.2
20260905210742 27 292 3.2 6.4 0.00 0.00 0.00 65 1018.0
20260905210546 27 292 4.8 6.4 0.00 0.00 0.00 64 1018.0
20260905210342 27 292 3.2 3.2 0.00 0.00 0.00 64 1017.9
20260905205940 27 248 3.2 6.4 0.00 0.00 0.00 64 1017.8
20260905205743 27 270 4.8 9.7 0.00 0.00 0.00 63 1017.9
20260905205549 27 248 6.4 6.4 0.00 0.00 0.00 63 1017.9
20260905205141 28 248 4.8 6.4 0.00 0.00 0.00 63 1018.0
20260905204942 28 270 6.4 9.7 0.00 0.00 0.00 63 1017.9
20260905204547 28 270 6.4 9.7 0.00 0.00 0.00 63 1017.9
20260905204343 28 270 8.0 11.3 0.00 0.00 0.00 63 1017.8
20260905204142 28 270 6.4 6.4 0.00 0.00 0.00 63 1018.0
20260905203945 28 248 6.4 9.7 0.00 0.00 0.00 63 1018.0
20260905203742 28 292 6.4 9.7 0.00 0.00 0.00 63 1017.7
20260905203343 28 248 6.4 6.4 0.00 0.00 0.00 63 1017.9
20260905203143 28 270 4.8 6.4 0.00 0.00 0.00 63 1017.8
20260905202942 28 270 3.2 6.4 0.00 0.00 0.00 63 1017.9
20260905202743 28 270 3.2 3.2 0.00 0.00 0.00 63 1017.7
20260905202549 28 270 3.2 3.2 0.00 0.00 0.00 62 1017.8
20260905202344 28 292 3.2 6.4 0.00 0.00 0.00 62 1017.7
20260905202143 28 270 4.8 6.4 0.00 0.00 0.00 62 1017.8
20260905201943 28 270 3.2 6.4 0.00 0.00 0.00 63 1017.7
20260905201743 28 248 1.6 3.2 0.00 0.00 0.00 62 1017.7
20260905201143 28 270 1.6 3.2 0.00 0.00 0.00 62 1017.8
20260905200944 28 248 3.2 3.2 0.00 0.00 0.00 61 1017.7
20260905200741 28 270 1.6 3.2 0.00 0.00 0.00 61 1018.0
20260905200545 28 248 3.2 3.2 0.00 0.00 0.00 60 1017.9
20260905200342 28 225 3.2 3.2 0.00 0.00 0.00 60 1017.7
20260905200142 28 248 3.2 3.2 0.00 0.00 0.00 59 1018.0
20260905195942 28 270 3.2 3.2 0.00 0.00 0.00 58 1017.9
20260905195744 28 270 3.2 3.2 0.00 0.00 0.00 58 1018.0
20260905195549 28 270 3.2 6.4 0.00 0.00 0.00 57 1017.9
20260905195142 28 270 6.4 6.4 0.00 0.00 0.00 56 1017.8
20260905194943 28 248 4.8 6.4 0.00 0.00 0.00 55 1018.0
20260905194743 28 270 4.8 6.4 0.00 0.00 0.00 54 1018.0
20260905194341 28 248 3.2 6.4 0.00 0.00 0.00 51 1017.9
20260905194143 27 270 4.8 6.4 0.00 0.00 0.00 49 1017.8
20260905193743 27 292 3.2 3.2 0.00 0.00 0.00 44 1017.9
20260905193545 28 292 3.2 6.4 0.00 0.00 0.00 43 1018.0
20260905193342 28 270 1.6 3.2 0.00 0.00 0.00 42 1018.0
20260905193141 28 270 3.2 3.2 0.00 0.00 0.00 41 1017.9
20260905192941 28 270 4.8 6.4 0.00 0.00 0.00 42 1017.9
20260905192743 28 270 3.2 3.2 0.00 0.00 0.00 42 1017.8
20260905192548 28 292 3.2 3.2 0.00 0.00 0.00 42 1017.9
20260905192143 27 270 3.2 6.4 0.00 0.00 0.00 41 1017.9
20260905191941 27 248 3.2 6.4 0.00 0.00 0.00 42 1017.8
20260905191548 27 270 4.8 6.4 0.00 0.00 0.00 44 1017.8
20260905191342 27 270 3.2 6.4 0.00 0.00 0.00 46 1017.9
20260905191151 27 270 3.2 3.2 0.00 0.00 0.00 47 1017.8
20260905190943 27 270 3.2 6.4 0.00 0.00 0.00 47 1017.7
20260905190742 27 270 4.8 6.4 0.00 0.00 0.00 49 1017.8
20260905190546 26 248 3.2 6.4 0.00 0.00 0.00 50 1017.7
20260905190144 26 270 3.2 6.4 0.00 0.00 0.00 53 1017.8
20260905185941 26 225 3.2 6.4 0.00 0.00 0.00 51 1017.5
20260905185342 26 225 0.0 3.2 0.00 0.00 0.00 52 1017.7
20260905185143 26 225 0.0 3.2 0.00 0.00 0.00 53 1017.7
20260905184942 26 248 0.0 0.0 0.00 0.00 0.00 52 1017.6
20260905184742 27 248 0.0 0.0 0.00 0.00 0.00 52 1017.8
20260905184548 27 248 0.0 0.0 0.00 0.00 0.00 52 1017.8
20260905184344 27 225 1.6 3.2 0.00 0.00 0.00 51 1017.5
20260905184150 27 270 1.6 3.2 0.00 0.00 0.00 50 1017.7
20260905183944 27 248 1.6 3.2 0.00 0.00 0.00 50 1017.6
20260905183742 27 225 1.6 3.2 0.00 0.00 0.00 50 1017.5
20260905183546 27 225 1.6 3.2 0.00 0.00 0.00 50 1017.4
20260905183343 27 248 3.2 3.2 0.00 0.00 0.00 49 1017.5
20260905183142 27 248 3.2 3.2 0.00 0.00 0.00 49 1017.4
20260905182942 27 225 0.0 3.2 0.00 0.00 0.00 50 1017.5
20260905182741 27 225 3.2 3.2 0.00 0.00 0.00 50 1017.5
20260905182600 27 248 1.6 3.2 0.00 0.00 0.00 50 1017.5
20260905182343 27 248 1.6 3.2 0.00 0.00 0.00 50 1017.5
20260905182142 27 270 1.6 3.2 0.00 0.00 0.00 49 1017.3
20260905181943 27 270 1.6 3.2 0.00 0.00 0.00 49 1017.5
20260905181744 27 270 1.6 3.2 0.00 0.00 0.00 48 1017.3
20260905181548 27 225 3.2 3.2 0.00 0.00 0.00 48 1017.4
20260905181344 27 225 1.6 3.2 0.00 0.00 0.00 48 1017.3
20260905181141 27 202 3.2 6.4 0.00 0.00 0.00 48 1017.4
20260905180742 27 248 3.2 3.2 0.00 0.00 0.00 48 1017.3
20260905180242 28 248 1.6 3.2 0.00 0.00 0.00 47 1017.3
20260905180050 28 292 1.6 3.2 0.00 0.00 0.00 47 1017.4
20260905175842 28 292 3.2 3.2 0.00 0.00 0.00 45 1017.2
20260905175045 28 180 3.2 3.2 0.00 0.00 0.00 43 1017.1
20260905174842 28 225 1.6 3.2 0.00 0.00 0.00 43 1017.1
20260905174643 29 248 1.6 3.2 0.00 0.00 0.00 43 1016.9
20260905173643 29 202 3.2 6.4 0.00 0.00 0.00 43 1016.8
20260905173444 29 180 3.2 6.4 0.00 0.00 0.00 43 1016.8
20260905173048 29 225 4.8 6.4 0.00 0.00 0.00 44 1016.7
20260905172843 29 180 4.8 11.3 0.00 0.00 0.00 44 1016.8
20260905172643 29 270 4.8 6.4 0.00 0.00 0.00 45 1016.8
20260905172443 29 248 3.2 6.4 0.00 0.00 0.00 45 1016.6
20260905172047 30 248 3.2 6.4 0.00 0.00 0.00 46 1016.7
20260905171841 30 180 4.8 9.7 0.00 0.00 0.00 46 1016.8
20260905171642 30 202 4.8 6.4 0.00 0.00 0.00 46 1016.7
20260905171443 30 158 4.8 9.7 0.00 0.00 0.00 47 1016.7
20260905171242 30 225 3.2 6.4 0.00 0.00 0.00 47 1016.8
20260905170842 30 135 4.8 6.4 0.00 0.00 0.00 47 1016.8
20260905170643 30 112 6.4 11.3 0.00 0.00 0.00 47 1016.7
20260905170242 30 158 6.4 11.3 0.00 0.00 0.00 47 1016.9
20260905165842 30 270 4.8 9.7 0.00 0.00 0.00 47 1016.6
20260905165643 30 158 4.8 6.4 0.00 0.00 0.00 47 1016.7
20260905165241 30 180 6.4 11.3 0.00 0.00 0.00 48 1016.7
20260905165045 30 68 6.4 9.7 0.00 0.00 0.00 48 1016.9
20260905164842 30 135 4.8 9.7 0.00 0.00 0.00 48 1016.7
20260905164643 31 225 6.4 11.3 0.00 0.00 0.00 48 1016.8
20260905164441 31 158 4.8 6.4 0.00 0.00 0.00 48 1016.7
20260905164242 31 158 4.8 6.4 0.00 0.00 0.00 47 1016.8
20260905164052 31 158 11.3 14.5 0.00 0.00 0.00 46 1016.8
20260905163840 31 225 4.8 6.4 0.00 0.00 0.00 46 1016.8
20260905163641 31 180 6.4 11.3 0.00 0.00 0.00 46 1016.7
20260905163047 31 225 6.4 11.3 0.00 0.00 0.00 44 1016.8
20260905162842 31 158 6.4 6.4 0.00 0.00 0.00 44 1016.8
20260905162642 31 158 6.4 12.9 0.00 0.00 0.00 44 1016.7
20260905162441 31 158 9.7 17.7 0.00 0.00 0.00 43 1016.7
20260905162242 31 180 6.4 12.9 0.00 0.00 0.00 42 1016.8
20260905162045 31 158 6.4 9.7 0.00 0.00 0.00 42 1017.0
20260905161843 31 112 9.7 12.9 0.00 0.00 0.00 41 1016.8
20260905161641 32 202 9.7 12.9 0.00 0.00 0.00 41 1016.6
20260905161441 32 202 8.0 11.3 0.00 0.00 0.00 40 1016.7
20260905161242 32 135 6.4 9.7 0.00 0.00 0.00 39 1016.9
20260905161049 32 225 6.4 9.7 0.00 0.00 0.00 39 1016.6
20260905160841 32 180 6.4 11.3 0.00 0.00 0.00 39 1016.9
20260905160440 32 202 4.8 6.4 0.00 0.00 0.00 38 1016.9
20260905160241 32 180 6.4 11.3 0.00 0.00 0.00 37 1016.8
20260905155841 32 180 6.4 11.3 0.00 0.00 0.00 37 1016.8
20260905155644 32 158 6.4 12.9 0.00 0.00 0.00 36 1016.8
20260905155441 32 180 9.7 12.9 0.00 0.00 0.00 35 1016.8
20260905155242 32 180 8.0 12.9 0.00 0.00 0.00 35 1016.8
20260905155044 32 180 9.7 12.9 0.00 0.00 0.00 35 1017.0
20260905154641 32 180 9.7 14.5 0.00 0.00 0.00 34 1016.8
20260905154441 33 270 11.3 14.5 0.00 0.00 0.00 34 1016.9
20260905154240 33 158 8.0 14.5 0.00 0.00 0.00 34 1017.0
20260905154047 33 158 8.0 12.9 0.00 0.00 0.00 34 1016.9
20260905153842 33 158 9.7 14.5 0.00 0.00 0.00 35 1016.9
20260905153440 33 180 11.3 17.7 0.00 0.00 0.00 35 1016.9
20260905153241 33 158 6.4 12.9 0.00 0.00 0.00 35 1016.9
20260905152241 33 225 8.0 14.5 0.00 0.00 0.00 36 1017.0
20260905152044 33 158 9.7 14.5 0.00 0.00 0.00 36 1016.9
20260905151842 33 180 9.7 14.5 0.00 0.00 0.00 36 1017.0
20260905151641 33 202 9.7 14.5 0.00 0.00 0.00 37 1017.0
20260905151241 33 202 6.4 9.7 0.00 0.00 0.00 37 1017.2
20260905151051 33 112 4.8 6.4 0.00 0.00 0.00 37 1017.3
20260905150841 33 180 6.4 11.3 0.00 0.00 0.00 37 1017.0
20260905150641 33 180 11.3 17.7 0.00 0.00 0.00 37 1017.0
20260905150242 33 180 6.4 14.5 0.00 0.00 0.00 36 1017.0
20260905145841 33 180 6.4 11.3 0.00 0.00 0.00 36 1016.9
20260905145642 33 135 6.4 9.7 0.00 0.00 0.00 35 1016.9
20260905145442 33 180 9.7 12.9 0.00 0.00 0.00 35 1017.1
20260905145045 33 180 8.0 14.5 0.00 0.00 0.00 34 1017.2
20260905144841 33 180 9.7 17.7 0.00 0.00 0.00 34 1016.9
20260905144441 33 135 8.0 11.3 0.00 0.00 0.00 35 1017.1
20260905144241 33 158 9.7 14.5 0.00 0.00 0.00 34 1017.0
20260905143840 33 202 6.4 12.9 0.00 0.00 0.00 35 1017.0
20260905143642 33 180 6.4 11.3 0.00 0.00 0.00 35 1017.1
20260905143443 33 180 6.4 11.3 0.00 0.00 0.00 34 1016.9
20260905143241 33 158 6.4 12.9 0.00 0.00 0.00 34 1016.9
20260905142842 34 180 9.7 14.5 0.00 0.00 0.00 33 1017.1
20260905142649 34 135 6.4 9.7 0.00 0.00 0.00 34 1016.9
20260905142442 34 112 6.4 9.7 0.00 0.00 0.00 35 1017.0
20260905142241 34 135 6.4 9.7 0.00 0.00 0.00 34 1017.2
20260905142046 34 248 12.9 17.7 0.00 0.00 0.00 34 1017.1
20260905141645 33 158 11.3 17.7 0.00 0.00 0.00 35 1017.1
20260905141442 33 158 8.0 12.9 0.00 0.00 0.00 34 1017.1
20260905141241 34 135 12.9 17.7 0.00 0.00 0.00 35 1017.1
20260905141052 34 202 9.7 12.9 0.00 0.00 0.00 34 1017.3
20260905140642 34 158 6.4 9.7 0.00 0.00 0.00 34 1017.3
20260905140442 33 135 6.4 11.3 0.00 0.00 0.00 34 1017.3
20260905140241 33 180 8.0 14.5 0.00 0.00 0.00 33 1017.3
20260905140049 34 180 9.7 12.9 0.00 0.00 0.00 33 1017.3
20260905135842 34 180 11.3 14.5 0.00 0.00 0.00 32 1017.3
20260905135642 34 135 6.4 11.3 0.00 0.00 0.00 33 1017.1
20260905135241 34 180 11.3 14.5 0.00 0.00 0.00 34 1017.2
20260905135049 34 158 6.4 11.3 0.00 0.00 0.00 34 1017.2
20260905134841 34 180 6.4 11.3 0.00 0.00 0.00 34 1017.2
20260905134642 34 202 8.0 12.9 0.00 0.00 0.00 33 1017.2
20260905134241 34 158 8.0 12.9 0.00 0.00 0.00 33 1017.5
20260905134050 34 158 6.4 11.3 0.00 0.00 0.00 33 1017.4
20260905133843 34 135 6.4 11.3 0.00 0.00 0.00 36 1017.2
20260905133641 34 112 6.4 9.7 0.00 0.00 0.00 35 1017.3
20260905133441 34 180 6.4 9.7 0.00 0.00 0.00 33 1017.4
20260905133054 34 135 6.4 12.9 0.00 0.00 0.00 34 1017.5
20260905132643 34 112 8.0 12.9 0.00 0.00 0.00 33 1017.3
20260905132441 34 135 6.4 11.3 0.00 0.00 0.00 33 1017.4
20260905132243 34 180 4.8 9.7 0.00 0.00 0.00 33 1017.4
20260905131841 34 135 6.4 11.3 0.00 0.00 0.00 33 1017.6
20260905131642 34 158 8.0 12.9 0.00 0.00 0.00 32 1017.5
20260905131440 34 112 6.4 9.7 0.00 0.00 0.00 31 1017.4
20260905131054 34 135 8.0 14.5 0.00 0.00 0.00 29 1017.7
20260905130841 34 112 9.7 17.7 0.00 0.00 0.00 33 1017.6
20260905130641 34 112 6.4 17.7 0.00 0.00 0.00 31 1017.5
20260905130441 34 158 9.7 14.5 0.00 0.00 0.00 31 1017.4
20260905130242 35 158 8.0 12.9 0.00 0.00 0.00 30 1017.6
20260905125843 35 135 6.4 11.3 0.00 0.00 0.00 29 1017.8
20260905125642 35 112 6.4 9.7 0.00 0.00 0.00 30 1017.6
20260905125441 34 180 9.7 17.7 0.00 0.00 0.00 30 1017.7
20260905125241 34 158 9.7 17.7 0.00 0.00 0.00 30 1017.4
20260905125045 35 158 9.7 12.9 0.00 0.00 0.00 30 1017.8
20260905124841 35 180 6.4 11.3 0.00 0.00 0.00 32 1017.7
20260905124642 35 112 6.4 11.3 0.00 0.00 0.00 29 1017.5
20260905124441 35 112 8.0 11.3 0.00 0.00 0.00 30 1017.7
20260905124242 35 158 9.7 14.5 0.00 0.00 0.00 30 1017.8
20260905124055 35 158 6.4 11.3 0.00 0.00 0.00 32 1017.7
20260905123642 35 112 8.0 11.3 0.00 0.00 0.00 33 1017.8
20260905123441 35 135 6.4 9.7 0.00 0.00 0.00 33 1017.6
20260905123247 35 90 4.8 9.7 0.00 0.00 0.00 34 1017.7
20260905123048 35 180 6.4 12.9 0.00 0.00 0.00 34 1017.8
20260905122841 35 158 4.8 6.4 0.00 0.00 0.00 31 1017.8
20260905122642 35 158 6.4 9.7 0.00 0.00 0.00 32 1018.0
20260905122441 35 112 6.4 12.9 0.00 0.00 0.00 34 1017.7
20260905121842 35 225 6.4 9.7 0.00 0.00 0.00 32 1017.9
20260905121641 35 180 6.4 11.3 0.00 0.00 0.00 31 1018.0
20260905121444 35 135 6.4 12.9 0.00 0.00 0.00 30 1017.8
20260905121241 35 202 6.4 11.3 0.00 0.00 0.00 31 1018.0
20260905121101 35 112 6.4 9.7 0.00 0.00 0.00 28 1017.9
20260905120841 35 180 6.4 9.7 0.00 0.00 0.00 29 1017.9
20260905120441 35 135 6.4 6.4 0.00 0.00 0.00 30 1018.0
20260905120241 35 68 8.0 14.5 0.00 0.00 0.00 30 1018.0
20260905115841 35 112 4.8 6.4 0.00 0.00 0.00 29 1018.0
20260905115647 35 158 6.4 9.7 0.00 0.00 0.00 29 1018.0
20260905115447 34 135 6.4 9.7 0.00 0.00 0.00 28 1018.1
20260905115242 34 158 6.4 9.7 0.00 0.00 0.00 29 1018.1
20260905115047 35 112 6.4 11.3 0.00 0.00 0.00 29 1018.1
20260905114842 35 90 4.8 9.7 0.00 0.00 0.00 29 1018.1
20260905114645 35 112 6.4 9.7 0.00 0.00 0.00 29 1018.1
20260905114442 35 158 6.4 9.7 0.00 0.00 0.00 29 1018.2
20260905114241 35 135 6.4 9.7 0.00 0.00 0.00 29 1018.1
20260905114049 35 135 6.4 11.3 0.00 0.00 0.00 30 1018.3
20260905113842 35 112 6.4 11.3 0.00 0.00 0.00 30 1018.1
20260905113641 35 202 6.4 11.3 0.00 0.00 0.00 30 1018.0
20260905113442 35 180 4.8 9.7 0.00 0.00 0.00 30 1018.0
20260905113243 35 158 6.4 12.9 0.00 0.00 0.00 30 1018.1
20260905113047 35 112 4.8 9.7 0.00 0.00 0.00 31 1018.2
20260905112441 35 112 6.4 12.9 0.00 0.00 0.00 31 1018.1
20260905112241 35 135 6.4 11.3 0.00 0.00 0.00 31 1018.1
20260905112046 35 112 6.4 9.7 0.00 0.00 0.00 30 1018.2
20260905111842 35 225 6.4 11.3 0.00 0.00 0.00 31 1018.1
20260905111643 35 112 6.4 12.9 0.00 0.00 0.00 29 1018.1
20260905111243 35 112 4.8 6.4 0.00 0.00 0.00 30 1018.2
20260905111057 35 225 6.4 9.7 0.00 0.00 0.00 28 1018.1
20260905110843 35 202 6.4 9.7 0.00 0.00 0.00 30 1018.1
20260905110640 35 135 6.4 11.3 0.00 0.00 0.00 27 1018.3
20260905110442 35 180 3.2 6.4 0.00 0.00 0.00 30 1018.3
20260905110049 35 158 3.2 6.4 0.00 0.00 0.00 35 1018.2
20260905105841 35 135 6.4 11.3 0.00 0.00 0.00 32 1018.2
20260905105441 35 180 6.4 14.5 0.00 0.00 0.00 34 1018.2
20260905105046 35 112 3.2 3.2 0.00 0.00 0.00 38 1018.2
20260905104841 35 112 4.8 6.4 0.00 0.00 0.00 37 1018.2
20260905104641 34 112 4.8 9.7 0.00 0.00 0.00 38 1018.2
20260905104443 35 158 6.4 12.9 0.00 0.00 0.00 40 1018.1
20260905104049 34 158 3.2 6.4 0.00 0.00 0.00 37 1018.1
20260905103841 35 112 6.4 9.7 0.00 0.00 0.00 33 1018.3
20260905103641 35 68 6.4 9.7 0.00 0.00 0.00 34 1018.4
20260905103442 35 202 4.8 6.4 0.00 0.00 0.00 35 1018.6
20260905103241 35 158 6.4 6.4 0.00 0.00 0.00 35 1018.2
20260905102841 34 112 4.8 6.4 0.00 0.00 0.00 34 1018.3
20260905102641 34 112 6.4 11.3 0.00 0.00 0.00 36 1018.4
20260905102441 35 112 4.8 6.4 0.00 0.00 0.00 36 1018.6
20260905102242 35 180 6.4 6.4 0.00 0.00 0.00 36 1018.6
20260905102046 35 180 3.2 6.4 0.00 0.00 0.00 37 1018.5
20260905101841 34 225 6.4 11.3 0.00 0.00 0.00 35 1018.6
20260905101641 34 158 4.8 6.4 0.00 0.00 0.00 37 1018.6
20260905101442 35 112 6.4 9.7 0.00 0.00 0.00 36 1018.5
20260905101242 36 158 3.2 6.4 0.00 0.00 0.00 36 1018.5
20260905100441 35 248 3.2 3.2 0.00 0.00 0.00 31 1018.4
20260905095842 34 225 3.2 6.4 0.00 0.00 0.00 30 1018.8
20260905095440 35 248 6.4 9.7 0.00 0.00 0.00 28 1018.7
20260905095047 34 135 3.2 3.2 0.00 0.00 0.00 29 1018.8
20260905094841 34 338 3.2 3.2 0.00 0.00 0.00 28 1018.8
20260905094642 35 270 3.2 6.4 0.00 0.00 0.00 26 1019.0
20260905094442 35 248 3.2 6.4 0.00 0.00 0.00 26 1018.6
20260905094244 35 248 3.2 6.4 0.00 0.00 0.00 26 1018.7
20260905094053 35 270 1.6 3.2 0.00 0.00 0.00 27 1018.6
20260905093841 35 225 1.6 3.2 0.00 0.00 0.00 28 1018.9
20260905093641 35 225 3.2 6.4 0.00 0.00 0.00 28 1018.8
20260905093441 35 112 4.8 6.4 0.00 0.00 0.00 29 1019.1
20260905093241 35 225 3.2 11.3 0.00 0.00 0.00 27 1019.0
20260905093049 35 248 1.6 3.2 0.00 0.00 0.00 28 1018.9
20260905092642 35 225 4.8 6.4 0.00 0.00 0.00 27 1019.0
20260905092441 35 225 3.2 6.4 0.00 0.00 0.00 28 1018.9
20260905092242 34 248 3.2 6.4 0.00 0.00 0.00 29 1018.9
20260905092045 34 270 3.2 6.4 0.00 0.00 0.00 30 1019.0
20260905091841 35 270 6.4 9.7 0.00 0.00 0.00 31 1019.1
20260905091641 35 270 3.2 3.2 0.00 0.00 0.00 28 1019.0
20260905091443 35 202 4.8 6.4 0.00 0.00 0.00 29 1019.1
20260905091241 34 135 3.2 6.4 0.00 0.00 0.00 29 1019.1
20260905091050 35 292 3.2 6.4 0.00 0.00 0.00 28 1019.3
20260905090842 35 270 3.2 6.4 0.00 0.00 0.00 27 1019.1
20260905090442 34 248 3.2 3.2 0.00 0.00 0.00 30 1019.2
20260905090241 34 248 3.2 6.4 0.00 0.00 0.00 29 1019.0
20260905090050 34 270 3.2 3.2 0.00 0.00 0.00 31 1019.1
20260905085841 34 90 3.2 3.2 0.00 0.00 0.00 31 1019.0
20260905085643 34 248 1.6 3.2 0.00 0.00 0.00 29 1019.2
20260905085440 34 248 3.2 6.4 0.00 0.00 0.00 30 1019.2
20260905085047 33 292 3.2 6.4 0.00 0.00 0.00 32 1019.0
20260905084842 33 292 3.2 3.2 0.00 0.00 0.00 30 1019.1
20260905084641 32 270 3.2 6.4 0.00 0.00 0.00 31 1019.3
20260905084440 32 292 1.6 3.2 0.00 0.00 0.00 33 1019.3
20260905084240 32 270 3.2 6.4 0.00 0.00 0.00 35 1019.1
20260905083641 32 248 6.4 9.7 0.00 0.00 0.00 37 1019.2
20260905083443 32 270 3.2 6.4 0.00 0.00 0.00 37 1019.2
20260905083240 32 292 3.2 6.4 0.00 0.00 0.00 38 1019.0
20260905082841 31 248 3.2 3.2 0.00 0.00 0.00 41 1019.0
20260905082641 31 270 4.8 6.4 0.00 0.00 0.00 41 1019.0
20260905082442 31 248 6.4 6.4 0.00 0.00 0.00 41 1019.1
20260905082046 31 270 4.8 6.4 0.00 0.00 0.00 41 1019.3
20260905081841 31 292 3.2 6.4 0.00 0.00 0.00 42 1019.2
20260905081643 31 270 4.8 6.4 0.00 0.00 0.00 43 1019.2
20260905081442 31 315 6.4 9.7 0.00 0.00 0.00 42 1019.5
20260905081241 31 270 4.8 6.4 0.00 0.00 0.00 43 1019.2
20260905081050 31 270 4.8 6.4 0.00 0.00 0.00 42 1019.1
20260905080841 30 292 4.8 6.4 0.00 0.00 0.00 43 1019.3
20260905080641 30 292 6.4 9.7 0.00 0.00 0.00 43 1019.2
20260905080443 30 270 6.4 6.4 0.00 0.00 0.00 43 1018.9
20260905080051 30 248 4.8 6.4 0.00 0.00 0.00 44 1019.0
20260905075641 30 225 6.4 9.7 0.00 0.00 0.00 44 1019.0
20260905075443 30 292 8.0 9.7 0.00 0.00 0.00 43 1018.9
20260905075241 30 248 4.8 6.4 0.00 0.00 0.00 44 1019.1
20260905074642 29 292 6.4 9.7 0.00 0.00 0.00 45 1018.9
20260905074441 29 292 6.4 6.4 0.00 0.00 0.00 45 1018.9
20260905074243 29 315 6.4 6.4 0.00 0.00 0.00 46 1019.1
20260905074050 29 292 6.4 9.7 0.00 0.00 0.00 45 1018.9
20260905073841 28 270 6.4 11.3 0.00 0.00 0.00 44 1019.0
20260905073641 28 248 6.4 9.7 0.00 0.00 0.00 46 1018.8
20260905073442 28 338 6.4 9.7 0.00 0.00 0.00 46 1019.0
20260905072842 28 292 8.0 12.9 0.00 0.00 0.00 46 1019.0
20260905072642 28 270 6.4 6.4 0.00 0.00 0.00 47 1019.0
20260905072046 28 292 6.4 9.7 0.00 0.00 0.00 48 1018.9
20260905071842 28 292 6.4 9.7 0.00 0.00 0.00 48 1018.8
20260905071645 28 270 6.4 9.7 0.00 0.00 0.00 49 1018.9
20260905071441 27 270 8.0 11.3 0.00 0.00 0.00 48 1018.9
20260905071242 27 270 8.0 12.9 0.00 0.00 0.00 49 1018.9
20260905071050 27 315 9.7 14.5 0.00 0.00 0.00 49 1018.9
20260905070642 27 270 9.7 14.5 0.00 0.00 0.00 50 1018.8
20260905070441 27 270 6.4 12.9 0.00 0.00 0.00 50 1018.9
20260905070242 27 292 11.3 17.7 0.00 0.00 0.00 50 1018.8
20260905070049 27 270 8.0 12.9 0.00 0.00 0.00 50 1019.1
20260905065841 27 248 9.7 12.9 0.00 0.00 0.00 50 1018.9
20260905065642 27 248 8.0 12.9 0.00 0.00 0.00 50 1018.9
20260905065441 27 270 11.3 14.5 0.00 0.00 0.00 50 1018.9